weather.gov     
National Weather Service

Terminal Aerodrome Forecast
NWS Homepage
This page is being discontinued on March 12, 2014.
The same data is available at this site. Please update your bookmarks.
Thank you, and we apologize for the inconvenience.
Please send an email to SR-SRH.Webmaster@noaa.gov with any concerns.


Current Version
Previous Version:    01  02  03  04  05  06  07  08  09  10  11  12  13  14  15  16  17  18  19  20  21  22  23  24  25  26  27  28  29  30  
   31  
[Printable]
483
FTUS41 KILN 200500
TAFCMH
TAF
KCMH 200539Z 2006/2106 20003KT P6SM BKN250
     FM201200 21010KT P6SM BKN100
     FM201500 21012G18KT P6SM SCT040 BKN080
     FM201900 22011KT P6SM VCSH OVC035
      TEMPO 2023/2103 -SHRA OVC020
     FM210400 27007KT P6SM SCT012=


U.S. Dept. of Commerce
NOAA National Weather Service
1325 East West Highway
Silver Spring, MD 20910
E-mail: w-nws.webmaster@noaa.gov
Page last modified: May 16, 2007
NATIONAL WEATHER SERVICE: for Safety, for Work, for Fun - FOR LIFE